Location: Unspecified
(37.6100°N, 2.7800°W)
Time: 22:07:14
(UTC+00:00)

Envisat - Visible Passes

Search period start: 16 February 2019 00:00
Search period end: 26 February 2019 00:00
Orbit: 764 x 766 km, 98.2° (Epoch: 16 February)

Date Brightness Start Highest point End Pass type
(mag) Time Alt. Az. Time Alt. Az. Time Alt. Az.
16 Feb 4.7 19:39:21 10° SSW 19:43:53 33° W 19:48:26 10° NNW visible
17 Feb 3.2 19:01:58 10° S 19:07:02 77° WSW 19:12:08 10° NNW visible
18 Feb 3.3 18:25:33 10° SE 18:30:23 46° ENE 18:35:14 10° N visible
18 Feb 5.7 20:06:10 10° SW 20:09:36 18° W 20:13:04 10° NW visible
19 Feb 4.3 19:27:50 10° S 19:32:37 42° W 19:37:26 10° NNW visible
20 Feb 2.9 18:50:46 10° SSE 18:55:50 84° ENE 19:00:57 10° N visible
21 Feb 3.5 18:14:38 10° SE 18:19:14 36° ENE 18:23:52 10° N visible
21 Feb 5.3 19:54:18 10° SSW 19:58:18 23° W 20:02:20 10° NW visible
22 Feb 6.3 06:26:49 10° ENE 06:29:32 14° E 06:32:14 10° SE visible
22 Feb 3.8 19:16:26 10° S 19:21:23 54° W 19:26:22 10° NNW visible
23 Feb 3.0 18:39:38 10° SSE 18:44:39 66° ENE 18:49:41 10° N visible
23 Feb 6.1 20:21:55 10° WSW 20:24:05 13° W 20:26:15 10° WNW visible
24 Feb 4.9 19:42:37 10° SSW 19:47:01 30° W 19:51:27 10° NW visible
25 Feb 6.7 06:16:56 10° ENE 06:18:12 11° E 06:19:27 10° ESE visible
25 Feb 3.3 19:05:07 10° S 19:10:09 70° WSW 19:15:14 10° NNW visible
